This is the latest recevied weather packets stored in our database for station/object KI2K. If no packets are shown the sender has not sent any weather packets the latest 10 day(s).
| Time | Temp. | Humidity | Pressure | Rain* | Wind** | Luminosity | Snow |
|---|---|---|---|---|---|---|---|
| 1777999052 | 12.22° C | 99% | 1008.1 hPa | 0 mm | - | 69 W/m² | - |
| 1777998750 | 12.78° C | 99% | 1008.3 hPa | 0 mm | - | 37 W/m² | - |
| 1777998447 | 12.78° C | 99% | 1008.5 hPa | 0 mm | - | 32 W/m² | - |
| 1777998144 | 13.33° C | 99% | 1008.3 hPa | 0 mm | - | 39 W/m² | - |
| 1777997841 | 13.89° C | 99% | 1008.2 hPa | 0 mm | - | 76 W/m² | - |
| 1777997539 | 13.89° C | 99% | 1008.1 hPa | 0 mm | - | 76 W/m² | - |
| 1777997236 | 13.89° C | 99% | 1008.1 hPa | 0 mm | - | 56 W/m² | - |
| 1777996933 | 13.89° C | 99% | 1008.1 hPa | 0 mm | - | 64 W/m² | - |
| 1777996630 | 13.89° C | 99% | 1008.2 hPa | 0 mm | - | 77 W/m² | - |
| 1777996326 | 13.89° C | 99% | 1008.1 hPa | 0 mm | - | 89 W/m² | - |
| 1777996022 | 13.89° C | 99% | 1008.2 hPa | 0 mm | - | 42 W/m² | - |
| 1777995718 | 14.44° C | 99% | 1008.3 hPa | 4.32 mm | - | 36 W/m² | - |
| 1777995415 | 14.44° C | 99% | 1008.3 hPa | 4.32 mm | - | 34 W/m² | - |
| 1777995112 | 14.44° C | 99% | 1008.1 hPa | 0 mm | - | 58 W/m² | - |
| 1777994809 | 14.44° C | 98% | 1008.3 hPa | 1.78 mm | - | 74 W/m² | - |
| 1777994505 | 14.44° C | 98% | 1008.1 hPa | 4.83 mm | - | 77 W/m² | - |
| 1777994200 | 14.44° C | 98% | 1008 hPa | 3.05 mm | - | 77 W/m² | - |
| 1777993898 | 14.44° C | 98% | 1007.8 hPa | 0 mm | - | 45 W/m² | - |
| 1777993594 | 13.89° C | 98% | 1007.4 hPa | 0 mm | - | 46 W/m² | - |
| 1777993291 | 13.89° C | 98% | 1007.6 hPa | 0 mm | - | 47 W/m² | - |
| 1777992986 | 13.89° C | 98% | 1007.6 hPa | 0 mm | - | 46 W/m² | - |
| 1777992685 | 14.44° C | 98% | 1007.8 hPa | 0 mm | - | 46 W/m² | - |
| 1777992383 | 13.89° C | 98% | 1007.6 hPa | 0 mm | - | 38 W/m² | - |
| 1777992080 | 13.89° C | 98% | 1007.9 hPa | 0 mm | - | 52 W/m² | - |
| 1777991777 | 13.89° C | 98% | 1008.1 hPa | 0 mm | - | 25 W/m² | - |
* Rain latest hour (hover to see other rain measurements)
** Current wind speed in m/s (hover to see current wind gust speed)